TimeEAT,TemperatureF,Dew PointF,Humidity,Sea Level PressureIn,VisibilityMPH,Wind Direction,Wind SpeedMPH,Gust SpeedMPH,PrecipitationIn,Events,Conditions,WindDirDegrees,DateUTC
1:00 AM,59.0,50.0,72,-9999,-9999.0,Calm,Calm,-,N/A,,Unknown,0,2013-02-04 22:00:00
2:00 AM,59.0,50.0,72,-9999,-9999.0,Calm,Calm,-,N/A,,Unknown,0,2013-02-04 23:00:00
3:00 AM,57,51,74,,19,Calm,Calm,,,,,,2013-02-05 00:00:00
4:00 AM,57.2,51.8,82,-9999,-9999.0,Calm,Calm,-,N/A,,Clear,0,2013-02-05 01:00:00
5:00 AM,57.2,51.8,82,-9999,-9999.0,Calm,Calm,-,N/A,,Clear,0,2013-02-05 02:00:00
7:00 AM,53.6,42.8,67,-9999,-9999.0,Calm,Calm,-,N/A,,Clear,0,2013-02-05 04:00:00
8:00 AM,55.4,48.2,77,-9999,-9999.0,Calm,Calm,-,N/A,,Clear,0,2013-02-05 05:00:00
9:00 AM,63,49,50,,19,NNW,4.6,,,,Scattered Clouds,330,2013-02-05 06:00:00
10:00 AM,75.2,51.8,44,-9999,6.2,NE,5.8,-,N/A,,Scattered Clouds,50,2013-02-05 07:00:00
11:00 AM,78.8,50.0,36,0.00,6.2,East,5.8,-,N/A,,Partly Cloudy,90,2013-02-05 08:00:00
1:00 PM,82.4,51.8,35,-9999,6.2,NNW,4.6,-,N/A,,Scattered Clouds,330,2013-02-05 10:00:00
2:00 PM,80.6,53.6,39,-9999,6.2,NE,3.5,-,N/A,,Mostly Cloudy,50,2013-02-05 11:00:00
3:00 PM,83,50,21,,19,North,4.6,,,,Partly Cloudy,0,2013-02-05 12:00:00
4:00 PM,82.4,51.8,35,-9999,6.2,Calm,Calm,-,N/A,,Scattered Clouds,0,2013-02-05 13:00:00
5:00 PM,80.6,50.0,34,-9999,6.2,ENE,4.6,-,N/A,,Mostly Cloudy,60,2013-02-05 14:00:00
7:00 PM,75.2,53.6,47,-9999,6.2,Calm,Calm,-,N/A,,Mostly Cloudy,0,2013-02-05 16:00:00
8:00 PM,69.8,51.8,53,-9999,-9999.0,ENE,4.6,-,N/A,,Clear,60,2013-02-05 17:00:00
9:00 PM,67,52,47,,19,East,4.6,,,,Mostly Cloudy,90,2013-02-05 18:00:00
10:00 PM,66.2,51.8,60,-9999,-9999.0,Calm,Calm,-,N/A,,Unknown,0,2013-02-05 19:00:00
11:00 PM,64.4,53.6,68,-9999,-9999.0,Calm,Calm,-,N/A,,Clear,0,2013-02-05 20:00:00